This is the latest recevied weather packets stored in our database for station/object KI7MOQ. If no packets are shown the sender has not sent any weather packets the latest 1 day(s).
| Time | Temp. | Humidity | Pressure | Rain* | Wind** | Luminosity | Snow |
|---|---|---|---|---|---|---|---|
| 1778025866 | 17.22° C | 73% | 1018.1 hPa | 0 mm | 0.45 m/s, 94° | 43 W/m² | - |
| 1778025563 | 16.67° C | 73% | 1017.8 hPa | 0 mm | 0.45 m/s, 94° | 48 W/m² | - |
| 1778025261 | 16.67° C | 73% | 1018 hPa | 0 mm | 0.45 m/s, 93° | 45 W/m² | - |
| 1778024957 | 17.22° C | 73% | 1018.2 hPa | 0 mm | 0.45 m/s, 101° | 39 W/m² | - |
| 1778024655 | 16.67° C | 74% | 1018.2 hPa | 0 mm | 0 m/s | 33 W/m² | - |
| 1778024352 | 16.67° C | 73% | 1018.3 hPa | 0 mm | 0 m/s | 31 W/m² | - |
| 1778024049 | 16.67° C | 73% | 1018.2 hPa | 0 mm | 0 m/s | 32 W/m² | - |
| 1778023747 | 17.22° C | 73% | 1018.4 hPa | 0 mm | 0 m/s | 33 W/m² | - |
| 1778023444 | 17.22° C | 72% | 1018.4 hPa | 0 mm | 0 m/s | 36 W/m² | - |
| 1778023141 | 17.22° C | 72% | 1018.3 hPa | 0 mm | 0 m/s | 40 W/m² | - |
| 1778022838 | 17.22° C | 72% | 1018.3 hPa | 0 mm | 0 m/s | 44 W/m² | - |
| 1778022537 | 17.22° C | 73% | 1018.2 hPa | 0 mm | 0 m/s | 51 W/m² | - |
| 1778022235 | 17.22° C | 73% | 1018.4 hPa | 0 mm | 0 m/s | 47 W/m² | - |
| 1778021931 | 17.22° C | 74% | 1018.3 hPa | 0 mm | 0 m/s | 40 W/m² | - |
| 1778021628 | 17.22° C | 73% | 1018.4 hPa | 0 mm | 0 m/s | 43 W/m² | - |
| 1778021322 | 17.22° C | 73% | 1018.4 hPa | 0 mm | 0.45 m/s, 139° | 38 W/m² | - |
| 1778021021 | 17.22° C | 72% | 1018.4 hPa | 0 mm | 0 m/s | 44 W/m² | - |
| 1778020717 | 17.22° C | 72% | 1018.4 hPa | 0 mm | 0 m/s | 53 W/m² | - |
| 1778020414 | 17.22° C | 72% | 1018.4 hPa | 0 mm | 0.45 m/s, 95° | 54 W/m² | - |
| 1778020110 | 17.22° C | 72% | 1018.5 hPa | 0 mm | 0 m/s | 68 W/m² | - |
| 1778019806 | 17.22° C | 71% | 1018.6 hPa | 0 mm | 0 m/s | 67 W/m² | - |
| 1778019504 | 17.22° C | 72% | 1018.5 hPa | 0 mm | 0 m/s | 75 W/m² | - |
| 1778019200 | 17.22° C | 73% | 1018.7 hPa | 0 mm | 0.45 m/s, 96° | 80 W/m² | - |
| 1778018897 | 16.67° C | 73% | 1018.6 hPa | 0 mm | 0 m/s | 88 W/m² | - |
| 1778018594 | 17.22° C | 71% | 1018.5 hPa | 0 mm | 0.45 m/s, 99° | 93 W/m² | - |
* Rain latest hour (hover to see other rain measurements)
** Current wind speed in m/s (hover to see current wind gust speed)